Terminal Aerodrome Forecast
Issued by NWS

Home | Current Version | Previous Version | Text Only | Print | Product List | Glossary On
Versions: 1 2 3 4 5 6 7 8 9 10 11 12 13 14 15
000
FTUS42 TJSJ 171100
TAFJBQ
TAF
TJBQ 171131Z 1712/1812 10010KT P6SM VCSH SCT030
     FM171430 06017G25KT P6SM SCT030
     FM172330 09010KT P6SM FEW030 SCT070=

USA.gov is the U.S. government's official web portal to all federal, state and local government web resources and services.